Location: Condor
(52.3263°N, 114.5541°W)
Time: 15:06:41
(UTC+00:00)

Envisat - Pass Details

Date: 15 June 2023
Orbit: 763 x 764 km, 98.2° (Epoch: 26 September)

Event Time Altitude Azimuth Distance (km) Brightness Sun altitude
Rises 09:56:06 0° 29° (NNE) 3,242 8.8 -8.6°
Reaches altitude 10° 09:59:55 10° 59° (ENE) 2,310 6.6 -8.3°
Maximum altitude 10:02:04 13° 84° (E) 2,131 5.9 -8.2°
Drops below altitude 10° 10:04:12 10° 109° (ESE) 2,303 5.7 -8.0°
Sets 10:07:59 0° 138° (SE) 3,222 6.1 -7.7°
